Regional Weather Roundup
Issued by NWS State College, PA

Home | Current Version | Previous Version | Graphics & Text | Print | Product List | Glossary On
Versions: 1 2 3 4 5 6 7 8 9 10 11 12 13 14 15 16 17 18 19 20 21 22 23 24 25 26 27 28 29 30 31 32 33 34 35 36 37 38 39 40 41 42 43 44 45 46 47 48 49 50
000
ASUS41 KCTP 231103
RWRCTP

REGIONAL WEATHER ROUNDUP
NATIONAL WEATHER SERVICE STATE COLLEGE PA
700 AM EDT SAT AUG 23 2014

Note: "fair" indicates few or no clouds below 12,000 feet with no
significant weather and/or obstructions to visibility.

* = STATION THAT DOES NOT REPORT PRECIPITATION /E.G. RAIN...SNOW...ETC/
    THUNDER OR FOG.

PAZ002>004-007>009-013>016-020>023-029>032-231200-
WESTERN PENNSYLVANIA

CITY           SKY/WX    TMP DP  RH WIND       PRES   REMARKS
ERIE           CLOUDY    70  66  87 N10       30.02R FOG
MEADVILLE      CLOUDY    65  64  97 NE5       30.03S FOG
FRANKLIN*      CLOUDY    61  59  94 N6        30.04S VSB<1/4
NEW CASTLE     NOT AVBL
BEAVER COUNTY  FOG       66  64  94 CALM      30.01  VSB 1/4
BUTLER*        CLOUDY    66  64  94 NE3       30.02S
PITTSBURGH INT FOG       69  69 100 CALM      30.00R VSB 1/4
PITTSBURGH     FOG       69  67  93 CALM      30.00R VSB 1/4
INDIANA*       CLOUDY    70  68  94 CALM      30.05R FOG
LATROBE        CLOUDY    70  70 100 CALM      30.01R FOG
WASHINGTON CO* CLOUDY    66  66 100 CALM      30.01S
$$

PAZ004>006-010>012-017>019-024>028-033>037-041-042-045-046-049>053-231200-
CENTRAL PENNSYLVANIA

CITY           SKY/WX    TMP DP  RH WIND       PRES   REMARKS
BRADFORD       FOG       64  63  96 E3        30.06R VSB 1/4
DUBOIS         FOG       66  66 100 CALM      30.02R VSB<1/4
CLEARFIELD     FOG       66  66 100 N5        30.03R VSB 1/2
JOHNSTOWN      CLOUDY    67  65  93 W6        30.05R FOG
ALTOONA        HVY RAIN  68  68 100 CALM      30.03R FOG
STATE COLLEGE  CLOUDY    68  66  94 E5        30.02R FOG
WILLIAMSPORT   CLOUDY    65  60  84 NE14      30.04R
SELINSGROVE    CLOUDY    65  61  87 CALM      30.05R
FT INDIANTOWN  CLOUDY    64  64 100 NE5       30.06R
CAPITAL CITY   CLOUDY    67  61  81 E8        30.04R
HARRISBURG     CLOUDY    69  61  75 E6        30.03R
YORK           CLOUDY    67  63  87 SE7       30.03R
$$

PAZ038>040-043-044-047-048-054-055-060>062-067>071-231200-
EASTERN PENNSYLVANIA

CITY           SKY/WX    TMP DP  RH WIND       PRES   REMARKS
SCRANTON       LGT RAIN  63  59  87 CALM      30.08R FOG
MOUNT POCONO   LGT RAIN  58  56  93 SE10      30.10R
ALLENTOWN      LGT RAIN  64  60  87 NE6       30.07R FOG
QUAKERTOWN*    CLOUDY    63  63 100 MISG      30.07S
READING        LGT RAIN  65  62  90 E6        30.05R FOG
LANCASTER      CLOUDY    66  62  87 E6        30.04R
COATESVILLE    MOSUNNY   64  64 100 E7        30.06R
POTTSTOWN      LGT RAIN  64  62  93 NE3       30.07R
BLUE BELL      CLOUDY    64  63  94 CALM      30.05R
DOYLESTOWN     LGT RAIN  63  62  97 N3        30.06R
WILLOW GROVE   NOT AVBL
NORTH PHILA    MOCLDY    68  60  75 NE7       30.06R
PHILADELPHIA   MOCLDY    68  62  81 E7        30.04R
$$



USA.gov is the U.S. government's official web portal to all federal, state and local government web resources and services.